Regional Weather Roundup
Issued by NWS Green Bay, WI

Home | Current Version | Previous Version | Graphics & Text | Print | Product List | Glossary Off
Versions: 1 2 3 4 5 6 7 8 9 10 11 12 13 14 15 16 17 18 19 20 21 22 23 24 25 26 27 28 29 30 31 32 33 34 35 36 37 38 39 40 41 42 43 44 45 46 47 48 49 50

000
ASUS43 KGRB 290700
RWRGRB

NORTH-CENTRAL AND NORTHEAST WISCONSIN REGIONAL WEATHER ROUNDUP
NATIONAL WEATHER SERVICE GREEN BAY WI
200 AM CDT SUN MAY 29 2016

WIZ005-009-010>012-018-019-290800-
NORTH CENTRAL WISCONSIN

CITY           SKY/WX    TMP DP  RH WIND       PRES   REMARKS
IRONWOOD       CLOUDY    57  55  94 NW5       29.76R
MANITOWISH WTR NOT AVBL
ARBOR VITAE    NOT AVBL
EAGLE RIVER    NOT AVBL
LAND O LAKES   NOT AVBL
RHINELANDER    CLOUDY    64  61  90 S8        29.83S
PHILLIPS       NOT AVBL
ANTIGO         NOT AVBL
TOMAHAWK       NOT AVBL
MERRILL        NOT AVBL
$$

WIZ013-073-290800-
NORTHEAST WISCONSIN

CITY           SKY/WX    TMP DP  RH WIND       PRES   REMARKS
IRON MOUNTAIN  CLOUDY    63  60  90 S8        29.83S
MARINETTE      CLOUDY    64  61  88 SW7       29.85F
$$

WIZ017-030-035>037-045-290800-
CENTRAL WISCONSIN

CITY           SKY/WX    TMP DP  RH WIND       PRES   REMARKS
MEDFORD        NOT AVBL
WAUSAU         CLOUDY    66  61  84 SW8       29.83S
MOSINEE        NOT AVBL
MARSHFIELD     CLOUDY    62  59  90 S7        29.84S
WISC RAPIDS    CLOUDY    64  61  90 S7        29.86F
STEVENS POINT  NOT AVBL
WAUPACA        NOT AVBL
SHAWANO        NOT AVBL
CLINTONVILLE   NOT AVBL
WAUTOMA        MOCLDY    64  63  96 S6        29.87F
$$

WIZ038-039-048-051-290800-
FOX VALLEY

CITY           SKY/WX    TMP DP  RH WIND       PRES   REMARKS
NWS GREEN BAY  CLOUDY    65  61  87 S6        29.85F
APPLETON       NOT AVBL
OSHKOSH        CLOUDY    65  62  90 S7        29.86F
FOND DU LAC    CLOUDY    66  63  90 S9        29.87F
$$

WIZ022-050-052-290800-
EAST CENTRAL WISCONSIN

CITY           SKY/WX    TMP DP  RH WIND       PRES   REMARKS
EPHRAIM        NOT AVBL
STURGEON BAY   NOT AVBL
MANITOWOC      NOT AVBL
SHEBOYGAN      CLOUDY    62  60  93 SW7       29.88F FOG
$$

LMZ563-521-522-541>543-290800-
LAKESHORE

STATION/POSITION TIME  TEMP    WIND        PRES    VSBY  WAVE
                       AIR SEA DIR/SP/G                  HT/PER
                 (UTC) (F)     (DEG/KT/KT) (MB)    (MI)  (FT/S)
SHEBOYGAN LKSHOR 0600   59     210/  7/  8 1012.4F
KEWAUNEE LKSHORE 0600   59     180/ 10/ 12 1011.4F
ALGOMA MARINA    0617          220/ 12/ 13   N/A
NORTHPORT PIER   0600   63     170/  6/ 13 1011.2R
N MID LAKE BUOY  0550   51 46  170/ 10/ 12 1010.8F         3/ 5
SISTER BAY LKSHO 0620   66     190/ 16/ 20   N/A
CHAMBERS ISLAND  0600   63     170/  6/ 12 1011.2
MENOMINEE LKSHOR 0600   65     190/ 10/ 14 1010.0R
$$




USA.gov is the U.S. government's official web portal to all federal, state and local government web resources and services.